Location: Newark
(49.8348°N, 24.0280°E)
Time: 14:58:51
(UTC+00:00)

Transit 2A - Pass Details

Date: 24 January 2020
Orbit: 600 x 959 km, 66.7° (Epoch: 22 February)

Event Time Altitude Azimuth Distance (km) Brightness Sun altitude
Rises 03:41:27 0° 319° (NW) 2,966 - -23.3°
Reaches altitude 10° 03:43:44 10° 312° (NW) 2,093 - -23.0°
Maximum altitude 03:48:12 43° 242° (WSW) 985 - -22.2°
Exits shadow 03:48:47 42° 222° (SW) 1,021 6.3 -22.2°
Drops below altitude 10° 03:53:06 10° 171° (S) 2,285 8.6 -21.5°
Sets 03:55:41 0° 165° (SSE) 3,271 9.5 -21.0°
